This is the latest recevied weather packets stored in our database for station/object KC5AV. If no packets are shown the sender has not sent any weather packets the latest 1 day(s).
| Time | Temp. | Humidity | Pressure | Rain* | Wind** | Luminosity | Snow |
|---|---|---|---|---|---|---|---|
| 1778087168 | 18.33° C | 82% | 1015.1 hPa | 0 mm | - | 164 W/m² | - |
| 1778085957 | 17.78° C | 82% | 1015.3 hPa | 0 mm | - | 101 W/m² | - |
| 1778085654 | 18.33° C | 83% | 1015 hPa | 0 mm | - | 127 W/m² | - |
| 1778081515 | 18.89° C | 82% | 1013.7 hPa | 0 mm | - | 162 W/m² | - |
| 1778081212 | 18.89° C | 82% | 1013.6 hPa | 0 mm | - | 157 W/m² | - |
| 1778080304 | 20° C | 79% | 1013.1 hPa | 0 mm | - | 195 W/m² | - |
| 1778079698 | 20° C | 81% | 1012.9 hPa | 0 mm | - | 248 W/m² | - |
| 1778078486 | 18.33° C | 84% | 1012.7 hPa | 0 mm | - | 174 W/m² | - |
| 1778078184 | 18.33° C | 84% | 1012.8 hPa | 0 mm | - | 208 W/m² | - |
| 1778076673 | 18.33° C | 85% | 1012.6 hPa | 0 mm | - | 100 W/m² | - |
| 1778076370 | 18.33° C | 86% | 1012.8 hPa | 0 mm | - | 106 W/m² | - |
| 1778075764 | 18.33° C | 85% | 1012.5 hPa | 0 mm | - | 131 W/m² | - |
| 1778075157 | 18.33° C | 85% | 1012.5 hPa | 0 mm | - | 99 W/m² | - |
| 1778074550 | 18.89° C | 86% | 1012.4 hPa | 0 mm | - | 67 W/m² | - |
| 1778072732 | 19.44° C | 88% | 1011.7 hPa | 0 mm | - | 46 W/m² | - |
| 1778071825 | 20° C | 88% | 1011.7 hPa | 0 mm | - | 27 W/m² | - |
| 1778070918 | 20.56° C | 86% | 1011.3 hPa | 0 mm | - | 19 W/m² | - |
| 1778070616 | 21.11° C | 84% | 1011.4 hPa | 0 mm | - | 9 W/m² | - |
| 1778069404 | 23.89° C | 90% | 1011.1 hPa | 0 mm | - | 8 W/m² | - |
| 1778068799 | 23.89° C | 90% | 1010.9 hPa | 0 mm | - | 9 W/m² | - |
| 1778068496 | 23.89° C | 90% | 1010.7 hPa | 0 mm | - | 9 W/m² | - |
| 1778067892 | 23.89° C | 90% | 1010.5 hPa | 0 mm | - | 4 W/m² | - |
| 1778067288 | 23.89° C | 90% | 1010.5 hPa | 0 mm | - | 1 W/m² | - |
| 1778066984 | 23.89° C | 90% | 1010.4 hPa | 0 mm | - | 1 W/m² | - |
| 1778066682 | 23.89° C | 90% | 1010.3 hPa | 0 mm | - | 0 W/m² | - |
* Rain latest hour (hover to see other rain measurements)
** Current wind speed in m/s (hover to see current wind gust speed)